STARLINK-33764, 63510

Orbit data source: Space-Track

STARLINK-33764, 63510 is a payload satellite owned by SpaceX/Seattle (US) in LEO that was launched on Mon, 07 Apr 2025 UTC via an FALCON 9 launch vehicle from the Air Force Western Test Range (AFWTR). Payload-class satellites include a variety of spacecraft equipped with specific instruments for various scientific and technological missions. These include communications satellites like Starlink; space stations such as the ISS; scientific satellites like the Hubble; Earth observation satellites from companies like Planet Labs, Umbra, and HawkEye 360; GPS; miniature CubeSats for education and research; and military/defense satellites.

Loading next visibility...
Identifier
63510, 2025-071T
Orbit
LEO
Country
Flag of USUS
Related business
Manufacturer
SpaceX/Seattle
Mission
Operational Commercial Communications
Bus & Motor
STARLINK V2MO, Unknown motor
Mass
575 kg wet, ~530 kg dry
Launch date (UTC)
2025-04-07 (7 months ago)
Launch vehicle
FALCON 9
Launch site
Air Force Western Test Range (AFWTR)
Object type
Payload
Rocket body
Debris
Shape & HBR
Box + 2 Pan, 17.7 m
Radar Cross Section
36.964 m², Large (>1 m²)

Expand to show TLE details & history
Last TLE update: 23 hours ago

TLE from 23 hours ago
0 STARLINK-33764
1 63510U 25071T   25308.47463447  .00017045  00000-0  58617-3 0  9994
2 63510  53.1612   1.8725 0001760  64.2498 295.8684 15.30206236 33573
Epoch: 2025-11-04T11:23Z
TLE epoch observation values (Epoch: 2025-11-04T11:23:28.418Z)
Latitude
-0.00003°
Longitude
147.04294°
Altitude
475.57 km
Speed
7.63 km/s
True Right ascension
00h 07m 29s
True Declination
0° 00' 00"
Sunlit
Object was in full shadow at epoch
Visualization orbit readout
Latitude
Unknown
Longitude
Unknown
Altitude
Unknown
Speed
Unknown
Apparent Right ascension
Unknown
Apparent Declination
Unknown
Sunlit
N/A
Visualization observer readout
Local Sidereal Time
06:49:44
Azimuth
Unknown
Elevation
Unknown
Doppler factor
Unknown
Orbital elements
Apogee altitude
476.659 km
Perigee altitude
474.246 km
Semi-major axis
6,853.59 km
Eccentricity
0.00018
Inclination
53.1612°
RAAN
1.8725°
Arg. of periapsis
64.2498°
True anomaly
295.85025°
Mean anomaly
295.8684°
Eccentric anomaly
295.85933°
Mean motion
3.8253 °/min
Orbital period
94.11 mins
BSTAR
0.00058617
Loading maneuver chart data...
Computing Atmospheric mass density...
Loading historical data...
Loading historical data...
Loading historical data...
Loading historical data...
Loading historical data...
Loading historical data...
Loading historical data...

Documentation

Showing up to 5 results
|